owner,sensor,date,latitude,longitude,vertical_datum,wind_speed,wind_to_direction,wind_speed_of_gust,qcFlag 
TABS,ioos:station:wmo:42043:1,2011-02-01T00:00:00Z,28.9818,-94.9186,4.0,5.558929753,104.1616219,6.76,'11111222,11111222,11111222' 
TABS,ioos:station:wmo:42043:1,2011-02-01T00:30:00Z,28.9818,-94.9186,4.0,5.801146438,111.9668432,7.11,'11111222,11111222,11111222' 
TABS,ioos:station:wmo:42043:1,2011-02-01T01:00:00Z,28.9818,-94.9186,4.0,6.302713701,113.2705767,7.78,'11111222,11111222,11111222' 
TABS,ioos:station:wmo:42043:1,2011-02-01T01:30:00Z,28.9818,-94.9186,4.0,5.843911361,110.3269154,7.16,'11111222,11111222,11111222' 
TABS,ioos:station:wmo:42043:1,2011-02-01T02:00:00Z,28.9818,-94.9186,4.0,6.53176852,114.9960588,7.96,'11111222,11111222,11111222' 
TABS,ioos:station:wmo:42043:1,2011-02-01T02:30:00Z,28.9818,-94.9186,4.0,5.808476564,118.5950688,7.3,'11111222,11111222,11111222' 
TABS,ioos:station:wmo:42043:1,2011-02-01T03:00:00Z,28.9818,-94.9186,4.0,5.300311312,119.1284534,6.34,'11111222,11111222,11111222' 
TABS,ioos:station:wmo:42043:1,2011-02-01T03:30:00Z,28.9818,-94.9186,4.0,5.380046468,116.8511714,6.39,'11111222,11111222,11111222' 
TABS,ioos:station:wmo:42043:1,2011-02-01T04:00:00Z,28.9818,-94.9186,4.0,5.703551525,117.9132941,6.82,'11111222,11111222,11111222' 
TABS,ioos:station:wmo:42043:1,2011-02-01T04:30:00Z,28.9818,-94.9186,4.0,6.634214347,123.6904097,7.68,'11111222,11111222,11111222' 
TABS,ioos:station:wmo:42043:1,2011-02-01T05:00:00Z,28.9818,-94.9186,4.0,6.408689414,127.7106513,7.44,'11111222,11111222,11111222' 
TABS,ioos:station:wmo:42043:1,2011-02-01T05:30:00Z,28.9818,-94.9186,4.0,5.770684535,122.2583168,7.15,'11111222,11111222,11111222' 
TABS,ioos:station:wmo:42043:1,2011-02-01T06:00:00Z,28.9818,-94.9186,4.0,5.631074498,125.7509217,6.58,'11111222,11111222,11111222' 
TABS,ioos:station:wmo:42043:1,2011-02-01T06:30:00Z,28.9818,-94.9186,4.0,5.021205035,128.1255137,6.07,'11111222,11111222,11111222' 
TABS,ioos:station:wmo:42043:1,2011-02-01T07:00:00Z,28.9818,-94.9186,4.0,4.390455557,123.7627983,5.24,'11111222,11111222,11111222' 
TABS,ioos:station:wmo:42043:1,2011-02-01T07:30:00Z,28.9818,-94.9186,4.0,3.916184367,123.649832,4.99,'11111222,11111222,11111222' 
TABS,ioos:station:wmo:42043:1,2011-02-01T08:00:00Z,28.9818,-94.9186,4.0,4.454492115,124.2968789,5.33,'11111222,11111222,11111222' 
TABS,ioos:station:wmo:42043:1,2011-02-01T08:30:00Z,28.9818,-94.9186,4.0,4.404781493,122.8606189,5.48,'11111222,11111222,11111222' 
TABS,ioos:station:wmo:42043:1,2011-02-01T09:00:00Z,28.9818,-94.9186,4.0,4.850938054,135.501431,7.1,'11111222,11111222,11111222' 
TABS,ioos:station:wmo:42043:1,2011-02-01T09:30:00Z,28.9818,-94.9186,4.0,4.271030321,131.6784249,5.4,'11111222,11111222,11111222' 
TABS,ioos:station:wmo:42043:1,2011-02-01T10:00:00Z,28.9818,-94.9186,4.0,6.08740503,138.7966732,7.29,'11111222,11111222,11111222' 
TABS,ioos:station:wmo:42043:1,2011-02-01T10:30:00Z,28.9818,-94.9186,4.0,5.168558793,143.9729213,6.18,'11111222,11111222,11111222' 
TABS,ioos:station:wmo:42043:1,2011-02-01T11:00:00Z,28.9818,-94.9186,4.0,5.868236532,144.7123179,7.26,'11111222,11111222,11111222' 
TABS,ioos:station:wmo:42043:1,2011-02-01T11:30:00Z,28.9818,-94.9186,4.0,7.315579266,156.1332039,9.14,'11111222,11111222,11111222' 
TABS,ioos:station:wmo:42043:1,2011-02-01T12:00:00Z,28.9818,-94.9186,4.0,7.89648656,161.0834544,9.64,'11111222,11111222,11111222' 
TABS,ioos:station:wmo:42043:1,2011-02-01T12:30:00Z,28.9818,-94.9186,4.0,7.961607878,163.659443,9.36,'11111222,11111222,11111222' 
TABS,ioos:station:wmo:42043:1,2011-02-01T13:00:00Z,28.9818,-94.9186,4.0,6.639231883,176.9783585,8.56,'11111222,11111222,11111222' 
TABS,ioos:station:wmo:42043:1,2011-02-01T13:30:00Z,28.9818,-94.9186,4.0,7.560066137,177.043196,9.39,'11111222,11111222,11111222' 
TABS,ioos:station:wmo:42043:1,2011-02-01T14:00:00Z,28.9818,-94.9186,4.0,8.515591583,275.9315131,16.55,'11111222,11111222,11111222' 
TABS,ioos:station:wmo:42043:1,2011-02-01T14:30:00Z,28.9818,-94.9186,4.0,10.16535784,321.2696515,13.27,'11111222,11111222,11111222' 
TABS,ioos:station:wmo:42043:1,2011-02-01T15:00:00Z,28.9818,-94.9186,4.0,8.564169545,333.2852038,10.82,'11111222,11111222,11111222' 
TABS,ioos:station:wmo:42043:1,2011-02-01T15:30:00Z,28.9818,-94.9186,4.0,9.421470161,312.3758599,11.92,'11111222,11111222,11111222' 
TABS,ioos:station:wmo:42043:1,2011-02-01T16:00:00Z,28.9818,-94.9186,4.0,10.91661578,308.864637,13.34,'11111222,11111222,11111222' 
TABS,ioos:station:wmo:42043:1,2011-02-01T16:30:00Z,28.9818,-94.9186,4.0,12.3693573,301.6468777,14.99,'11111222,11111222,11111222' 
TABS,ioos:station:wmo:42043:1,2011-02-01T17:00:00Z,28.9818,-94.9186,4.0,12.16105259,302.6445638,15.02,'11111222,11111222,11111222' 
TABS,ioos:station:wmo:42043:1,2011-02-01T17:30:00Z,28.9818,-94.9186,4.0,11.57960276,300.8618555,14.55,'11111222,11111222,11111222' 
TABS,ioos:station:wmo:42043:1,2011-02-01T18:00:00Z,28.9818,-94.9186,4.0,13.21778348,309.289315,16.77,'11111222,11111222,11111222' 
TABS,ioos:station:wmo:42043:1,2011-02-01T18:30:00Z,28.9818,-94.9186,4.0,13.40542055,310.9164408,16.53,'11111222,11111222,11111222' 
TABS,ioos:station:wmo:42043:1,2011-02-01T19:00:00Z,28.9818,-94.9186,4.0,11.945045,316.0513842,14.5,'11111222,11111222,11111222' 
TABS,ioos:station:wmo:42043:1,2011-02-01T19:30:00Z,28.9818,-94.9186,4.0,12.24681591,310.6620931,15.76,'11111222,11111222,11111222' 
TABS,ioos:station:wmo:42043:1,2011-02-01T20:00:00Z,28.9818,-94.9186,4.0,11.88682043,317.8299546,15.11,'11111222,11111222,11111222' 
TABS,ioos:station:wmo:42043:1,2011-02-01T20:30:00Z,28.9818,-94.9186,4.0,11.9620107,306.9464483,15.21,'11111222,11111222,11111222' 
TABS,ioos:station:wmo:42043:1,2011-02-01T21:00:00Z,28.9818,-94.9186,4.0,10.98852128,314.7786772,14.32,'11111222,11111222,11111222' 
TABS,ioos:station:wmo:42043:1,2011-02-01T21:30:00Z,28.9818,-94.9186,4.0,11.33293431,316.7161048,14.26,'11111222,11111222,11111222' 
TABS,ioos:station:wmo:42043:1,2011-02-01T22:00:00Z,28.9818,-94.9186,4.0,11.29821225,317.7261994,14.29,'11111222,11111222,11111222' 
TABS,ioos:station:wmo:42043:1,2011-02-01T22:30:00Z,28.9818,-94.9186,4.0,11.44623082,320.957012,14.86,'11111222,11111222,11111222' 
TABS,ioos:station:wmo:42043:1,2011-02-01T23:00:00Z,28.9818,-94.9186,4.0,10.5364178,328.1501128,12.84,'11111222,11111222,11111222' 
TABS,ioos:station:wmo:42043:1,2011-02-01T23:30:00Z,28.9818,-94.9186,4.0,10.3819555,332.2747284,13.07,'11111222,11111222,11111222' 
TABS,ioos:station:wmo:42043:1,2011-02-02T00:00:00Z,28.9818,-94.9186,4.0,10.9923064,335.7198152,15.2,'11111222,11111222,11111222' 
TABS,ioos:station:wmo:42043:1,2011-02-02T00:30:00Z,28.9818,-94.9186,4.0,11.34464191,328.9581522,14.23,'11111222,11111222,11111222' 
TABS,ioos:station:wmo:42043:1,2011-02-02T01:00:00Z,28.9818,-94.9186,4.0,10.94884469,323.8416887,14.02,'11111222,11111222,11111222' 
TABS,ioos:station:wmo:42043:1,2011-02-02T01:30:00Z,28.9818,-94.9186,4.0,10.45401837,330.7376421,12.72,'11111222,11111222,11111222' 
TABS,ioos:station:wmo:42043:1,2011-02-02T02:00:00Z,28.9818,-94.9186,4.0,9.418327877,333.5164182,12.85,'11111222,11111222,11111222' 
TABS,ioos:station:wmo:42043:1,2011-02-02T02:30:00Z,28.9818,-94.9186,4.0,10.37996628,343.2582881,13.47,'11111222,11111222,11111222' 
TABS,ioos:station:wmo:42043:1,2011-02-02T03:00:00Z,28.9818,-94.9186,4.0,10.77702185,349.8994408,13.86,'11111222,11111222,11111222' 
TABS,ioos:station:wmo:42043:1,2011-02-02T03:30:00Z,28.9818,-94.9186,4.0,10.26138392,348.0766508,13.65,'11111222,11111222,11111222' 
TABS,ioos:station:wmo:42043:1,2011-02-02T04:00:00Z,28.9818,-94.9186,4.0,9.902449192,349.2913012,14.16,'11111222,11111222,11111222' 
TABS,ioos:station:wmo:42043:1,2011-02-02T04:30:00Z,28.9818,-94.9186,4.0,10.4215258,355.5420616,14.42,'11111222,11111222,11111222' 
TABS,ioos:station:wmo:42043:1,2011-02-02T05:00:00Z,28.9818,-94.9186,4.0,10.57643607,354.6288074,14.36,'11111222,11111222,11111222' 
TABS,ioos:station:wmo:42043:1,2011-02-02T05:30:00Z,28.9818,-94.9186,4.0,11.70132471,6.329151881,15.75,'11111222,11111222,11111222' 
TABS,ioos:station:wmo:42043:1,2011-02-02T06:00:00Z,28.9818,-94.9186,4.0,10.839488,11.00906983,13.61,'11111222,11111222,11111222' 
TABS,ioos:station:wmo:42043:1,2011-02-02T06:30:00Z,28.9818,-94.9186,4.0,10.22704258,18.82445554,14.27,'11111222,11111222,11111222' 
TABS,ioos:station:wmo:42043:1,2011-02-02T07:00:00Z,28.9818,-94.9186,4.0,9.60875122,2.445304917,13.43,'11111222,11111222,11111222' 
TABS,ioos:station:wmo:42043:1,2011-02-02T07:30:00Z,28.9818,-94.9186,4.0,8.777955343,355.425879,12.3,'11111222,11111222,11111222' 
TABS,ioos:station:wmo:42043:1,2011-02-02T08:00:00Z,28.9818,-94.9186,4.0,8.857928652,350.2503756,11.72,'11111222,11111222,11111222' 
TABS,ioos:station:wmo:42043:1,2011-02-02T08:30:00Z,28.9818,-94.9186,4.0,8.038662824,339.9192986,11.17,'11111222,11111222,11111222' 
TABS,ioos:station:wmo:42043:1,2011-02-02T09:00:00Z,28.9818,-94.9186,4.0,8.814652574,333.6673538,11.11,'11111222,11111222,11111222' 
TABS,ioos:station:wmo:42043:1,2011-02-02T09:30:00Z,28.9818,-94.9186,4.0,9.26214338,333.9327704,11.93,'11111222,11111222,11111222' 
TABS,ioos:station:wmo:42043:1,2011-02-02T10:00:00Z,28.9818,-94.9186,4.0,9.70894948,338.9326694,13.16,'11111222,11111222,11111222' 
TABS,ioos:station:wmo:42043:1,2011-02-02T10:30:00Z,28.9818,-94.9186,4.0,9.272437651,338.8869096,12.75,'11111222,11111222,11111222' 
TABS,ioos:station:wmo:42043:1,2011-02-02T11:00:00Z,28.9818,-94.9186,4.0,8.709127396,338.0884822,11.86,'11111222,11111222,11111222' 
TABS,ioos:station:wmo:42043:1,2011-02-02T11:30:00Z,28.9818,-94.9186,4.0,9.569973877,342.3600797,12.9,'11111222,11111222,11111222' 
TABS,ioos:station:wmo:42043:1,2011-02-02T12:00:00Z,28.9818,-94.9186,4.0,9.699649478,350.26558,13.12,'11111222,11111222,11111222' 
TABS,ioos:station:wmo:42043:1,2011-02-02T12:30:00Z,28.9818,-94.9186,4.0,10.86304285,348.3692216,13.78,'11111222,11111222,11111222' 
TABS,ioos:station:wmo:42043:1,2011-02-02T13:00:00Z,28.9818,-94.9186,4.0,10.43455797,347.8283598,13.45,'11111222,11111222,11111222' 
TABS,ioos:station:wmo:42043:1,2011-02-02T13:30:00Z,28.9818,-94.9186,4.0,10.04703439,348.6339635,14.01,'11111222,11111222,11111222' 
TABS,ioos:station:wmo:42043:1,2011-02-02T14:00:00Z,28.9818,-94.9186,4.0,10.66,350.0603313,14.13,'11111222,11111222,11111222' 
TABS,ioos:station:wmo:42043:1,2011-02-02T14:30:00Z,28.9818,-94.9186,4.0,10.69108039,345.7036186,13.59,'11111222,11111222,11111222' 
TABS,ioos:station:wmo:42043:1,2011-02-02T15:00:00Z,28.9818,-94.9186,4.0,10.38832518,348.5060016,14.85,'11111222,11111222,11111222' 
TABS,ioos:station:wmo:42043:1,2011-02-02T15:30:00Z,28.9818,-94.9186,4.0,9.826382854,346.8828328,14.04,'11111222,11111222,11111222' 
TABS,ioos:station:wmo:42043:1,2011-02-02T16:00:00Z,28.9818,-94.9186,4.0,10.73119285,2.616892007,14.03,'11111222,11111222,11111222' 
TABS,ioos:station:wmo:42043:1,2011-02-02T16:30:00Z,28.9818,-94.9186,4.0,10.22470048,1.737187368,13.82,'11111222,11111222,11111222' 
TABS,ioos:station:wmo:42043:1,2011-02-02T17:00:00Z,28.9818,-94.9186,4.0,9.69000516,0.058918154,13.41,'11111222,11111222,11111222' 
TABS,ioos:station:wmo:42043:1,2011-02-02T17:30:00Z,28.9818,-94.9186,4.0,9.938128596,3.461035325,12.87,'11111222,11111222,11111222' 
TABS,ioos:station:wmo:42043:1,2011-02-02T18:00:00Z,28.9818,-94.9186,4.0,8.976068182,2.106705905,11.97,'11111222,11111222,11111222' 
TABS,ioos:station:wmo:42043:1,2011-02-02T18:30:00Z,28.9818,-94.9186,4.0,9.03244153,1.33200628,12.24,'11111222,11111222,11111222' 
TABS,ioos:station:wmo:42043:1,2011-02-02T19:00:00Z,28.9818,-94.9186,4.0,7.972509015,1.437270682,11.13,'11111222,11111222,11111222' 
TABS,ioos:station:wmo:42043:1,2011-02-02T19:30:00Z,28.9818,-94.9186,4.0,7.864508885,7.892902495,10.46,'11111222,11111222,11111222' 
TABS,ioos:station:wmo:42043:1,2011-02-02T20:00:00Z,28.9818,-94.9186,4.0,8.010224716,359.5706167,11.03,'11111222,11144222,11111222' 
TABS,ioos:station:wmo:42043:1,2011-02-02T20:30:00Z,28.9818,-94.9186,4.0,7.879219504,355.9970768,11.93,'11111222,11111222,11111222' 
TABS,ioos:station:wmo:42043:1,2011-02-02T21:00:00Z,28.9818,-94.9186,4.0,8.338662962,2.611705652,10.64,'11111222,11111222,11111222' 
TABS,ioos:station:wmo:42043:1,2011-02-02T21:30:00Z,28.9818,-94.9186,4.0,8.453129598,1.558931023,11.93,'11111222,11111222,11111222' 
TABS,ioos:station:wmo:42043:1,2011-02-02T22:00:00Z,28.9818,-94.9186,4.0,7.898607472,354.3325171,10.64,'11111222,11111222,11111222' 
TABS,ioos:station:wmo:42043:1,2011-02-02T22:30:00Z,28.9818,-94.9186,4.0,7.853184068,351.65303,10.75,'11111222,11111222,11111222' 
TABS,ioos:station:wmo:42043:1,2011-02-02T23:00:00Z,28.9818,-94.9186,4.0,8.24293637,1.52916432,10.62,'11111222,11111222,11111222' 
TABS,ioos:station:wmo:42043:1,2011-02-02T23:30:00Z,28.9818,-94.9186,4.0,8.340407664,354.3575653,11.23,'11111222,11111222,11111222' 
TABS,ioos:station:wmo:42043:1,2011-02-03T00:00:00Z,28.9818,-94.9186,4.0,8.292659405,358.5487023,11.6,'11111222,11111222,11111222' 
TABS,ioos:station:wmo:42043:1,2011-02-03T00:30:00Z,28.9818,-94.9186,4.0,7.829227293,2.781788573,11.2,'11111222,11111222,11111222' 
TABS,ioos:station:wmo:42043:1,2011-02-03T01:00:00Z,28.9818,-94.9186,4.0,8.570373387,0.534622506,11.94,'11111222,11111222,11111222' 
TABS,ioos:station:wmo:42043:1,2011-02-03T01:30:00Z,28.9818,-94.9186,4.0,8.543494601,3.220532365,11.61,'11111222,11111222,11111222' 
TABS,ioos:station:wmo:42043:1,2011-02-03T02:00:00Z,28.9818,-94.9186,4.0,8.656673726,15.54512159,11.2,'11111222,11111222,11111222' 
TABS,ioos:station:wmo:42043:1,2011-02-03T02:30:00Z,28.9818,-94.9186,4.0,9.165424158,22.78790557,12.11,'11111222,11111222,11111222' 
TABS,ioos:station:wmo:42043:1,2011-02-03T03:00:00Z,28.9818,-94.9186,4.0,9.208588383,23.41891254,12.39,'11111222,11111222,11111222' 
TABS,ioos:station:wmo:42043:1,2011-02-03T03:30:00Z,28.9818,-94.9186,4.0,9.974592724,32.09642989,13.28,'11111222,11111222,11111222' 
TABS,ioos:station:wmo:42043:1,2011-02-03T04:00:00Z,28.9818,-94.9186,4.0,10.02349739,33.89587684,13.23,'11111222,11111222,11111222' 
TABS,ioos:station:wmo:42043:1,2011-02-03T04:30:00Z,28.9818,-94.9186,4.0,9.884341152,28.45751764,13.01,'11111222,11111222,11111222' 
TABS,ioos:station:wmo:42043:1,2011-02-03T05:00:00Z,28.9818,-94.9186,4.0,9.038860548,33.81284331,12.82,'11111222,11111222,11111222' 
TABS,ioos:station:wmo:42043:1,2011-02-03T05:30:00Z,28.9818,-94.9186,4.0,9.203048408,34.3286725,11.99,'11111222,11111222,11111222' 
TABS,ioos:station:wmo:42043:1,2011-02-03T06:00:00Z,28.9818,-94.9186,4.0,8.596231733,25.7897547,11.13,'11111222,11111222,11111222' 
TABS,ioos:station:wmo:42043:1,2011-02-03T06:30:00Z,28.9818,-94.9186,4.0,8.532408804,22.898536,12.03,'11111222,11111222,11111222' 
TABS,ioos:station:wmo:42043:1,2011-02-03T07:00:00Z,28.9818,-94.9186,4.0,7.983263744,27.20671975,11.23,'11111222,11111222,11111222' 
TABS,ioos:station:wmo:42043:1,2011-02-03T07:30:00Z,28.9818,-94.9186,4.0,7.923761733,23.97690614,11.3,'11111222,11111222,11111222' 
TABS,ioos:station:wmo:42043:1,2011-02-03T08:00:00Z,28.9818,-94.9186,4.0,8.361632616,20.14676818,10.98,'11111222,11111222,11111222' 
TABS,ioos:station:wmo:42043:1,2011-02-03T08:30:00Z,28.9818,-94.9186,4.0,8.135477859,13.2160827,11.15,'11111222,11111222,11111222' 
TABS,ioos:station:wmo:42043:1,2011-02-03T09:00:00Z,28.9818,-94.9186,4.0,8.512960707,27.94947988,11.12,'11111222,11111222,11111222' 
TABS,ioos:station:wmo:42043:1,2011-02-03T09:30:00Z,28.9818,-94.9186,4.0,9.174093961,20.01486403,12.87,'11111222,11111222,11111222' 
TABS,ioos:station:wmo:42043:1,2011-02-03T10:00:00Z,28.9818,-94.9186,4.0,8.878879434,5.363633128,11.64,'11111222,11111222,11111222' 
TABS,ioos:station:wmo:42043:1,2011-02-03T10:30:00Z,28.9818,-94.9186,4.0,8.615944522,2.128264755,12.29,'11111222,11111222,11111222' 
TABS,ioos:station:wmo:42043:1,2011-02-03T11:00:00Z,28.9818,-94.9186,4.0,8.886056493,18.63859349,11.6,'11111222,11111222,11111222' 
TABS,ioos:station:wmo:42043:1,2011-02-03T11:30:00Z,28.9818,-94.9186,4.0,8.604585987,18.28729774,11.98,'11111222,11111222,11111222' 
TABS,ioos:station:wmo:42043:1,2011-02-03T12:00:00Z,28.9818,-94.9186,4.0,8.728000917,16.23369791,11.43,'11111222,11111222,11111222' 
TABS,ioos:station:wmo:42043:1,2011-02-03T12:30:00Z,28.9818,-94.9186,4.0,8.314282892,17.71554082,10.66,'11111222,11111222,11111222' 
TABS,ioos:station:wmo:42043:1,2011-02-03T13:00:00Z,28.9818,-94.9186,4.0,8.14926377,18.67926191,10.82,'11111222,11111222,11111222' 
TABS,ioos:station:wmo:42043:1,2011-02-03T13:30:00Z,28.9818,-94.9186,4.0,7.602532473,22.17900833,10.14,'11111222,11111222,11111222' 
TABS,ioos:station:wmo:42043:1,2011-02-03T14:00:00Z,28.9818,-94.9186,4.0,7.445998926,24.60289439,10.98,'11111222,11111222,11111222' 
TABS,ioos:station:wmo:42043:1,2011-02-03T14:30:00Z,28.9818,-94.9186,4.0,7.893136259,18.15923754,10.55,'11111222,11111222,11111222' 
TABS,ioos:station:wmo:42043:1,2011-02-03T15:00:00Z,28.9818,-94.9186,4.0,7.571664282,16.49605085,10.7,'11111222,11111222,11111222' 
TABS,ioos:station:wmo:42043:1,2011-02-03T15:30:00Z,28.9818,-94.9186,4.0,7.845928881,21.29940019,10.89,'11111222,11111222,11111222' 
TABS,ioos:station:wmo:42043:1,2011-02-03T16:00:00Z,28.9818,-94.9186,4.0,7.692203845,26.23166813,10.57,'11111222,11111222,11111222' 
TABS,ioos:station:wmo:42043:1,2011-02-03T16:30:00Z,28.9818,-94.9186,4.0,7.183341841,25.56595198,10.01,'11111222,11111222,11111222' 
TABS,ioos:station:wmo:42043:1,2011-02-03T17:00:00Z,28.9818,-94.9186,4.0,6.789911634,23.43100845,9.25,'11111222,11111222,11111222' 
TABS,ioos:station:wmo:42043:1,2011-02-03T17:30:00Z,28.9818,-94.9186,4.0,6.611278243,4.597888604,8.95,'11111222,11111222,11111222' 
TABS,ioos:station:wmo:42043:1,2011-02-03T18:00:00Z,28.9818,-94.9186,4.0,6.685162676,18.75992721,8.96,'11111222,11111222,11111222' 
TABS,ioos:station:wmo:42043:1,2011-02-03T18:30:00Z,28.9818,-94.9186,4.0,6.403631782,18.5761657,8.96,'11111222,11111222,11111222' 
TABS,ioos:station:wmo:42043:1,2011-02-03T19:00:00Z,28.9818,-94.9186,4.0,6.538264296,17.0767074,8.91,'11111222,11111222,11111222' 
TABS,ioos:station:wmo:42043:1,2011-02-03T19:30:00Z,28.9818,-94.9186,4.0,5.603936117,20.47202119,7.91,'11111222,11111222,11111222' 
TABS,ioos:station:wmo:42043:1,2011-02-03T20:00:00Z,28.9818,-94.9186,4.0,6.853765388,17.40364359,9.26,'11111222,11111222,11111222' 
TABS,ioos:station:wmo:42043:1,2011-02-03T20:30:00Z,28.9818,-94.9186,4.0,7.237471934,355.0060572,9.92,'11111222,11111222,11111222' 
TABS,ioos:station:wmo:42043:1,2011-02-03T21:00:00Z,28.9818,-94.9186,4.0,6.940115273,0.330020153,9.47,'11111222,11111222,11111222' 
TABS,ioos:station:wmo:42043:1,2011-02-03T21:30:00Z,28.9818,-94.9186,4.0,7.304690274,7.630697896,9.84,'11111222,11111222,11111222' 
TABS,ioos:station:wmo:42043:1,2011-02-03T22:00:00Z,28.9818,-94.9186,4.0,7.283529364,20.32561098,10.58,'11111222,11111222,11111222' 
TABS,ioos:station:wmo:42043:1,2011-02-03T22:30:00Z,28.9818,-94.9186,4.0,7.140756262,24.84212055,9.29,'11111222,11111222,11111222' 
TABS,ioos:station:wmo:42043:1,2011-02-03T23:00:00Z,28.9818,-94.9186,4.0,7.86569768,16.5454997,11.91,'11111222,11111222,11111222' 
TABS,ioos:station:wmo:42043:1,2011-02-03T23:30:00Z,28.9818,-94.9186,4.0,7.151223672,16.4073773,10.06,'11111222,11111222,11111222' 
TABS,ioos:station:wmo:42043:1,2011-02-04T00:00:00Z,28.9818,-94.9186,4.0,7.265975502,29.88153155,9.61,'11111222,11111222,11111222' 
TABS,ioos:station:wmo:42043:1,2011-02-04T00:30:00Z,28.9818,-94.9186,4.0,7.759310536,23.78978125,10.84,'11111222,11111222,11111222' 
TABS,ioos:station:wmo:42043:1,2011-02-04T01:00:00Z,28.9818,-94.9186,4.0,7.082160687,20.58419306,9.23,'11111222,11111222,11111222' 
TABS,ioos:station:wmo:42043:1,2011-02-04T01:30:00Z,28.9818,-94.9186,4.0,7.511784076,28.20232601,10.03,'11111222,11111222,11111222' 
TABS,ioos:station:wmo:42043:1,2011-02-04T02:00:00Z,28.9818,-94.9186,4.0,8.804027487,37.01277471,11.44,'11111222,11111222,11111222' 
TABS,ioos:station:wmo:42043:1,2011-02-04T02:30:00Z,28.9818,-94.9186,4.0,8.090296657,23.83998045,10.47,'11111222,11111222,11111222' 
TABS,ioos:station:wmo:42043:1,2011-02-04T03:00:00Z,28.9818,-94.9186,4.0,8.305287472,25.91687484,10.97,'11111222,11111222,11111222' 
TABS,ioos:station:wmo:42043:1,2011-02-04T03:30:00Z,28.9818,-94.9186,4.0,8.498941111,25.35873264,10.89,'11111222,11111222,11111222' 
TABS,ioos:station:wmo:42043:1,2011-02-04T04:00:00Z,28.9818,-94.9186,4.0,7.856742327,37.65722062,10.27,'11111222,11111222,11111222' 
TABS,ioos:station:wmo:42043:1,2011-02-04T04:30:00Z,28.9818,-94.9186,4.0,7.519707441,28.95071705,10.81,'11111222,11111222,11111222' 
TABS,ioos:station:wmo:42043:1,2011-02-04T05:00:00Z,28.9818,-94.9186,4.0,7.241636555,22.91782353,9.72,'11111222,11111222,11111222' 
TABS,ioos:station:wmo:42043:1,2011-02-04T05:30:00Z,28.9818,-94.9186,4.0,6.615020786,11.15681695,9.51,'11111222,11111222,11111222' 
TABS,ioos:station:wmo:42043:1,2011-02-04T06:00:00Z,28.9818,-94.9186,4.0,6.845326873,357.7392929,9.1,'11111222,11111222,11111222' 
TABS,ioos:station:wmo:42043:1,2011-02-04T06:30:00Z,28.9818,-94.9186,4.0,7.139649851,354.7763108,9.62,'11111222,11111222,11111222' 
TABS,ioos:station:wmo:42043:1,2011-02-04T07:00:00Z,28.9818,-94.9186,4.0,7.041434513,335.9464768,9.76,'11111222,11111222,11111222' 
TABS,ioos:station:wmo:42043:1,2011-02-04T07:30:00Z,28.9818,-94.9186,4.0,6.873718062,328.8073815,9.0,'11111222,11111222,11111222' 
TABS,ioos:station:wmo:42043:1,2011-02-04T08:00:00Z,28.9818,-94.9186,4.0,7.066859274,332.5282995,9.49,'11111222,11111222,11111222' 
TABS,ioos:station:wmo:42043:1,2011-02-04T08:30:00Z,28.9818,-94.9186,4.0,7.464529456,328.1409338,10.03,'11111222,11111222,11111222' 
TABS,ioos:station:wmo:42043:1,2011-02-04T09:00:00Z,28.9818,-94.9186,4.0,7.65497224,322.2167985,10.16,'11111222,11111222,11111222' 
TABS,ioos:station:wmo:42043:1,2011-02-04T09:30:00Z,28.9818,-94.9186,4.0,7.982436971,326.8074919,10.1,'11111222,11111222,11111222' 
TABS,ioos:station:wmo:42043:1,2011-02-04T10:00:00Z,28.9818,-94.9186,4.0,8.489534734,316.8136508,10.59,'11111222,11111222,11111222' 
TABS,ioos:station:wmo:42043:1,2011-02-04T10:30:00Z,28.9818,-94.9186,4.0,8.134236289,319.9868829,10.65,'11111222,11111222,11111222' 
TABS,ioos:station:wmo:42043:1,2011-02-04T11:00:00Z,28.9818,-94.9186,4.0,8.796846026,323.9246144,11.48,'11111222,11111222,11111222' 
TABS,ioos:station:wmo:42043:1,2011-02-04T11:30:00Z,28.9818,-94.9186,4.0,8.487290498,322.1308153,10.61,'11111222,11111222,11111222' 
TABS,ioos:station:wmo:42043:1,2011-02-04T12:00:00Z,28.9818,-94.9186,4.0,8.359575348,325.8725831,10.49,'11111222,11111222,11111222' 
TABS,ioos:station:wmo:42043:1,2011-02-04T12:30:00Z,28.9818,-94.9186,4.0,8.278967327,326.0794678,10.83,'11111222,11111222,11111222' 
TABS,ioos:station:wmo:42043:1,2011-02-04T13:00:00Z,28.9818,-94.9186,4.0,7.551556131,327.6566949,9.84,'11111222,11111222,11111222' 
TABS,ioos:station:wmo:42043:1,2011-02-04T13:30:00Z,28.9818,-94.9186,4.0,7.619009122,322.1974456,9.95,'11111222,11111222,11111222' 
TABS,ioos:station:wmo:42043:1,2011-02-04T14:00:00Z,28.9818,-94.9186,4.0,7.940938232,324.6886587,10.4,'11111222,11111222,11111222' 
TABS,ioos:station:wmo:42043:1,2011-02-04T14:30:00Z,28.9818,-94.9186,4.0,7.796364537,321.7188234,10.21,'11111222,11111222,11111222' 
TABS,ioos:station:wmo:42043:1,2011-02-04T15:00:00Z,28.9818,-94.9186,4.0,8.051360134,316.9123955,10.69,'11111222,11111222,11111222' 
TABS,ioos:station:wmo:42043:1,2011-02-04T15:30:00Z,28.9818,-94.9186,4.0,8.149417157,316.6904213,11.17,'11111222,11111222,11111222' 
TABS,ioos:station:wmo:42043:1,2011-02-04T16:00:00Z,28.9818,-94.9186,4.0,9.16100977,303.377754,11.47,'11111222,11111222,11111222' 
TABS,ioos:station:wmo:42043:1,2011-02-04T16:30:00Z,28.9818,-94.9186,4.0,9.194438536,304.1393571,11.73,'11111222,11111222,11111222' 
TABS,ioos:station:wmo:42043:1,2011-02-04T17:00:00Z,28.9818,-94.9186,4.0,8.225867735,316.3298213,10.74,'11111222,11111222,11111222' 
TABS,ioos:station:wmo:42043:1,2011-02-04T17:30:00Z,28.9818,-94.9186,4.0,8.291085574,310.5487312,11.18,'11111222,11111222,11111222' 
TABS,ioos:station:wmo:42043:1,2011-02-04T18:00:00Z,28.9818,-94.9186,4.0,8.55858049,302.3530235,11.11,'11111222,11111222,11111222' 